Weather History for Douglas, WY

Change the Weather History Date:

Thursday, March 7, 2013

  Actual Average Record
Temperature  
Mean Temperature 46 °F 32 °F  
Max Temperature 59 °F 46 °F 61 °F (2007)
Min Temperature 32 °F 19 °F 11 °F (2004)
Degree Days  
Heating Degree Days 19 32  
Month to date heating degree days 208 235  
Since 1 July heating degree days 5239 5635  
Cooling Degree Days 0 0  
Month to date cooling degree days 0 0  
Year to date cooling degree days 0 0  
Moisture  
Dew Point 22 °F    
Average Humidity 40    
Maximum Humidity 59    
Minimum Humidity 21    
Precipitation  
Precipitation T in 0.01 in 0.08 in (2014)
Month to date precipitation T 0.11  
Year to date precipitation 0.49 0.90  
Sea Level Pressure  
Sea Level Pressure 29.89 in    
Wind  
Wind Speed 7 mph (NW)    
Max Wind Speed 21 mph    
Max Gust Speed 24 mph    
Visibility 10 miles    
Events      
T = Trace of Precipitation, MM = Missing Value Source: NWS Daily Summary

Daily Weather History Graph

Daily Weather History Graph

Search for Another Location

Airport:

Trip Planner

Search our weather history database for the weather conditions in past years. The results will help you decide how hot, cold, wet, or windy it might be!

Date:

Astronomy

Mar. 07, 2013 Rise Set
Actual Time 6:26 AM MST 5:58 PM MST
Civil Twilight 5:58 AM MST 6:26 PM MST
Nautical Twilight 5:25 AM MST 6:59 PM MST
Astronomical Twilight 4:52 AM MST 7:32 PM MST
Moon 3:33 AM MST (3/7) 1:44 PM MST (3/7)
Length of Visible Light 12h 28m
Length of Day
11h 31m
Waning Crescent, 19% of the Moon is Illuminated
Mar 7
Waning Crescent
Mar 11
New
Mar 19
First Quarter
Mar 27
Full
Apr 2
Last Quarter

Hourly Weather History & Observations

Time (MST) Temp. Windchill Dew Point Humidity Pressure Visibility Wind Dir Wind Speed Gust Speed Precip Events Conditions
12:53 AM 36.0 °F 31.1 °F 19.0 °F 50% 29.75 in 10.0 mi NNE 5.8 mph - N/A   Clear
1:53 AM 37.9 °F 32.7 °F 19.9 °F 48% 29.75 in 10.0 mi South 6.9 mph - N/A   Clear
2:53 AM 35.1 °F - 19.9 °F 54% 29.78 in 10.0 mi Calm Calm - N/A   Clear
3:53 AM 33.1 °F - 19.9 °F 59% 29.81 in 10.0 mi Calm Calm - N/A   Clear
4:53 AM 42.1 °F - 19.9 °F 41% 29.80 in 10.0 mi Calm Calm - N/A   Clear
5:53 AM 37.9 °F - 21.0 °F 51% 29.88 in 10.0 mi Calm Calm - N/A   Clear
6:53 AM 39.0 °F 34.8 °F 23.0 °F 53% 29.91 in 10.0 mi NW 5.8 mph - N/A   Clear
7:53 AM 43.0 °F 39.5 °F 26.1 °F 51% 29.92 in 10.0 mi WNW 5.8 mph - N/A   Clear
8:53 AM 46.9 °F - 26.1 °F 44% 29.90 in 10.0 mi Calm Calm - N/A   Clear
9:53 AM 51.1 °F - 21.9 °F 32% 29.89 in 10.0 mi West 8.1 mph - N/A   Clear
10:53 AM 51.1 °F - 19.9 °F 29% 29.92 in 10.0 mi West 5.8 mph - N/A   Mostly Cloudy
11:53 AM 54.0 °F - 21.9 °F 29% 29.90 in 10.0 mi Variable 5.8 mph - N/A   Overcast
12:53 PM 55.0 °F - 21.0 °F 27% 29.91 in 10.0 mi West 5.8 mph - N/A   Mostly Cloudy
1:53 PM 55.9 °F - 21.9 °F 27% 29.89 in 10.0 mi Calm Calm - N/A   Clear
2:53 PM 57.0 °F - 21.9 °F 26% 29.88 in 10.0 mi West 12.7 mph - N/A   Clear
3:53 PM 57.9 °F - 19.0 °F 22% 29.88 in 10.0 mi West 18.4 mph 24.2 mph N/A   Clear
4:53 PM 57.0 °F - 18.0 °F 22% 29.87 in 10.0 mi West 11.5 mph - N/A   Partly Cloudy
5:53 PM 51.1 °F - 21.0 °F 31% 29.91 in 10.0 mi WNW 4.6 mph - N/A   Overcast
6:53 PM 46.9 °F - 25.0 °F 42% 29.95 in 10.0 mi ENE 11.5 mph 16.1 mph N/A   Overcast
7:53 PM 46.0 °F 39.3 °F 24.1 °F 42% 29.94 in 10.0 mi NE 16.1 mph - N/A   Overcast
8:53 PM 46.9 °F - 25.0 °F 42% 29.96 in 10.0 mi ESE 10.4 mph - 0.00 in   Overcast
9:53 PM 42.1 °F 37.1 °F 28.0 °F 58% 29.99 in 10.0 mi SE 8.1 mph - N/A   Overcast
10:53 PM 37.9 °F 30.0 °F 24.1 °F 57% 30.03 in 10.0 mi SE 12.7 mph - N/A   Partly Cloudy
11:53 PM 35.1 °F 25.9 °F 24.1 °F 64% 30.01 in 10.0 mi East 13.8 mph - N/A   Clear